Zurück zum Katalog

STARLINK-6181

AktivKommunikationVLEO
NORAD 56888·PAYLOAD·🇺🇸 United States

Gestartet Jun 12, 2023 von Cape Canaveral Space Force Station

Loading…

Nächste Überflüge (nächste 24 Stunden)

TLE

AktuellSource: CelesTrak SupGP

Epoche: Sep 15, 2026, 01:34 UTC

1 56888C 23083N   26258.06576389  .00044584  00000+0  16149-2 0  2583
2 56888  43.0029  99.2881 0001736 279.1469 344.5236 15.27555052    12

Verfolge STARLINK-6181 in Echtzeit mit AllMySat

Download on the App Store